TimeEST,TemperatureF,Dew PointF,Humidity,Sea Level PressureIn,VisibilityMPH,Wind Direction,Wind SpeedMPH,Gust SpeedMPH,PrecipitationIn,Events,Conditions,WindDirDegrees,DateUTC
12:53 AM,32.0,24.1,73,30.08,10.0,NE,3.5,-,N/A,,Overcast,50,2013-01-16 05:53:00
1:53 AM,33.1,24.1,70,30.10,10.0,Calm,Calm,-,N/A,,Overcast,0,2013-01-16 06:53:00
3:53 AM,33.1,26.1,75,30.06,9.0,Calm,Calm,-,N/A,,Overcast,0,2013-01-16 08:53:00
4:53 AM,32.0,25.0,75,30.05,8.0,NW,3.5,-,N/A,,Overcast,320,2013-01-16 09:53:00
5:53 AM,32.0,26.1,79,30.04,8.0,Calm,Calm,-,N/A,,Overcast,0,2013-01-16 10:53:00
6:53 AM,30.9,26.1,82,30.04,8.0,NW,3.5,-,N/A,,Mostly Cloudy,320,2013-01-16 11:53:00
7:53 AM,32.0,26.1,79,30.04,7.0,NW,4.6,-,N/A,,Overcast,310,2013-01-16 12:53:00
8:53 AM,32.0,26.1,79,30.06,6.0,NW,4.6,-,N/A,,Haze,310,2013-01-16 13:53:00
9:20 AM,32.0,26.6,80,30.07,6.0,WSW,3.5,-,N/A,,Haze,250,2013-01-16 14:20:00
9:53 AM,32.0,27.0,82,30.09,6.0,West,3.5,-,N/A,,Haze,270,2013-01-16 14:53:00
10:53 AM,34.0,27.0,75,30.06,6.0,West,4.6,-,N/A,,Haze,270,2013-01-16 15:53:00
11:53 AM,35.1,27.0,72,30.04,7.0,West,5.8,-,N/A,,Overcast,280,2013-01-16 16:53:00
12:53 PM,36.0,27.0,70,30.03,8.0,WSW,6.9,-,N/A,,Overcast,240,2013-01-16 17:53:00
1:53 PM,37.9,26.1,62,30.03,10.0,West,8.1,-,N/A,,Clear,260,2013-01-16 18:53:00
2:53 PM,37.9,26.1,62,30.02,10.0,WSW,5.8,-,N/A,,Clear,240,2013-01-16 19:53:00
3:53 PM,37.0,24.1,59,30.04,10.0,WSW,6.9,-,N/A,,Clear,240,2013-01-16 20:53:00
4:53 PM,37.0,23.0,57,30.05,10.0,SSW,6.9,-,N/A,,Clear,210,2013-01-16 21:53:00
6:53 PM,34.0,25.0,70,30.07,10.0,SW,5.8,-,N/A,,Clear,230,2013-01-16 23:53:00
7:53 PM,34.0,25.0,70,30.10,10.0,SW,5.8,-,N/A,,Clear,220,2013-01-17 00:53:00
8:53 PM,33.1,27.0,78,30.10,8.0,SW,5.8,-,N/A,,Clear,230,2013-01-17 01:53:00
9:53 PM,33.1,27.0,78,30.11,8.0,WSW,6.9,-,N/A,,Clear,250,2013-01-17 02:53:00
10:53 PM,32.0,27.0,82,30.11,8.0,WSW,5.8,-,N/A,,Clear,250,2013-01-17 03:53:00
11:53 PM,33.1,25.0,72,30.12,10.0,SW,4.6,-,N/A,,Mostly Cloudy,230,2013-01-17 04:53:00